Regional Weather Roundup
Issued by NWS

Home | Current Version | Previous Version | Text Only | Print | Product List | Glossary On
Versions: 1 2 3 4 5 6 7 8 9 10 11 12 13 14 15 16 17 18 19 20 21 22 23 24 25 26 27 28 29 30 31 32 33 34 35 36 37 38 39 40 41 42 43 44 45 46 47 48 49 50
000
ASUS42 KFFC 211403
RWRGA
WEATHER ROUNDUP FOR GEORGIA
NATIONAL WEATHER SERVICE PEACHTREE CITY GA
1000 AM EDT TUE OCT 21 2014

NOTE: "FAIR" INDICATES FEW OR NO CLOUDS BELOW 12,000 FEET WITH NO
SIGNIFICANT WEATHER AND/OR OBSTRUCTIONS TO VISIBILITY.

* = USE WITH CAUTION. THE STATIONS MARKED WITH AN ASTERISK MAY NOT
REPORT WEATHER SUCH AS PRECIPITATION, FOG, OR THUNDER AND ARE NOT
QUALITY CONTROLLED BY NWS.

THE REMARK "TC" DENOTES TEMPERATURE READING IN DEGREES CELSIUS.

GAZ001>058-211500-
NORTH GEORGIA

CITY           SKY/WX    TMP DP  RH WIND       PRES   REMARKS
ATLANTA        SUNNY     60  50  69 NW7       30.04R
ATHENS         SUNNY     59  52  77 NW3       30.02R
CHAMBLEE       SUNNY     61  51  70 NW5       30.04R
PEACHTREE CITY SUNNY     58  52  80 W3        30.05R
ROME           PTSUNNY   52  51  97 CALM      30.05R FOG
WEST ATLANTA   SUNNY     58  52  80 VRB3      30.04R
GAINESVILLE    SUNNY     59  52  77 W7        30.04R
CARTERSVILLE   SUNNY     55  50  83 VRB3      30.06R


CITY           SKY/WX    TMP DP  RH WIND       PRES   REMARKS
DALTON*        FOG       48  48 100 CALM      30.05S VSB 1/4
LAWRENCEVILLE* SUNNY     59  46  63 W6        30.03
KENNESAW*      SUNNY     57  48  72 CALM      30.05R
$$

GAZ059>098-102>109-211500-
CENTRAL GEORGIA

CITY           SKY/WX    TMP DP  RH WIND       PRES   REMARKS
AUGUSTA-BUSH   SUNNY     61  52  72 CALM      30.00R
AUGUSTA-DANIEL SUNNY     64  52  64 NW5       30.00S
COLUMBUS       SUNNY     63  52  67 CALM      30.05R
MACON          SUNNY     58  55  90 CALM      30.03R
ROBINS AFB     SUNNY     59  54  83 NW2       30.03R


CITY           SKY/WX    TMP DP  RH WIND       PRES   REMARKS
LAGRANGE*      SUNNY     60  58  93 CALM      30.06R
SYLVANIA*      SUNNY     68  61  77 W3        30.01S
MILLEDGEVILLE* SUNNY     61  55  82 NW3       30.02S
$$

GAZ099>101-110>166-211500-
SOUTH GEORGIA

CITY           SKY/WX    TMP DP  RH WIND       PRES   REMARKS
SAVANNAH       SUNNY     71  56  58 N3        30.00R
VALDOSTA       SUNNY     70  55  59 NE5       30.01R
ALMA           SUNNY     68  56  65 N3        30.01R
ST SIMONS      SUNNY     72  62  71 N8        30.00R
FT STEWART     SUNNY     70  55  60 CALM      29.99R
ALBANY         SUNNY     66  55  67 N5        30.05R
HUNTER AFB     SUNNY     71  59  67 NW5       29.98R
MOODY AFB      SUNNY     70  58  64 N7        30.01R
BRUNSWICK      SUNNY     72  59  64 N5        30.00S


CITY           SKY/WX    TMP DP  RH WIND       PRES   REMARKS
BAINBRIDGE*    SUNNY     68  59  73 CALM      30.04R
MOULTRIE*      SUNNY     64  59  82 CALM      30.03R
VIDALIA*       SUNNY     68  55  64 N3        30.02R
WAYCROSS*      SUNNY     72  61  69 NE3       30.01S
DOUGLAS*       SUNNY     70  57  64 N5        30.03S
$$


USA.gov is the U.S. government's official web portal to all federal, state and local government web resources and services.